Location: Macksville High School
(37.9611°N, 99.9654°W)
Time: 00:43:14
(UTC+00:00)

Cosmos 468 Rocket - Pass Details

Date: 17 January 2021
Orbit: 744 x 780 km, 74.0° (Epoch: 07 March)

Event Time Altitude Azimuth Distance (km) Brightness Sun altitude
Rises 12:41:32 0° 214° (SSW) 3,201 7.0 -14.1°
Reaches altitude 10° 12:43:59 10° 220° (SW) 2,285 6.2 -13.7°
Maximum altitude 12:48:56 45° 293° (WNW) 1,041 4.3 -12.7°
Drops below altitude 10° 12:53:59 10° 6° (N) 2,322 6.4 -11.8°
Sets 12:56:29 0° 12° (NNE) 3,257 7.2 -11.3°
